QPF
0.00 0.00 0.00 0.00 0.00 0.00 0.00 0.00 0.00 0.00 0.01 0.01 0.01 0.05 0.05 0.07 0.05 0.01 0.00 0.00 0.00 0.00 0.00 0.00 0.00 0.00 0.00 0.00 0.00 0.00 0.00 0.00 0.00 0.00 0.00 0.00 0.00 0.00 0.00 0.00 0.00 0.00 0.00 0.00 0.00
0.01 0.00 0.00 0.00 0.00 0.00 0.00 0.00 0.00 0.00 0.00 0.01 0.03 0.08 0.09 0.08 0.08 0.02 0.00 0.00 0.00 0.00 0.00 0.00 0.00 0.00 0.00 0.00 0.00 0.00 0.00 0.00 0.00 0.00 0.00 0.00 0.00 0.00 0.00 0.00 0.00 0.00 0.00 0.00 0.00
0.03 0.02 0.00 0.00 0.00 0.00 0.00 0.00 0.01 0.00 0.00 0.00 0.02 0.05 0.05 0.06 0.07 0.01 0.00 0.00 0.00 0.00 0.00 0.00 0.00 0.00 0.00 0.00 0.00 0.00 0.00 0.00 0.00 0.00 0.00 0.00 0.00 0.00 0.00 0.00 0.00 0.00 0.00 0.00 0.00
0.05 0.04 0.02 0.00 0.00 0.00 0.00 0.00 0.00 0.01 0.00 0.00 0.01 0.08 0.10 0.08 0.03 0.00 0.01 0.00 0.00 0.00 0.00 0.00 0.00 0.00 0.00 0.00 0.00 0.00 0.00 0.00 0.00 0.00 0.00 0.00 0.00 0.00 0.00 0.00 0.00 0.00 0.00 0.00 0.00
0.06 0.05 0.03 0.02 0.01 0.00 0.00 0.00 0.00 0.01 0.01 0.01 0.01 0.07 0.12 0.06 0.00 0.00 0.00 0.00 0.00 0.00 0.00 0.00 0.00 0.00 0.00 0.00 0.00 0.00 0.00 0.00 0.00 0.00 0.00 0.00 0.00 0.00 0.00 0.00 0.00 0.00 0.00 0.00 0.00
0.06 0.06 0.04 0.03 0.02 0.00 0.01 0.00 0.01 0.01 0.01 0.01 0.02 0.05 0.07 0.04 0.01 0.00 0.00 0.00 0.00 0.00 0.01 0.01 0.00 0.00 0.00 0.00 0.00 0.00 0.00 0.00 0.00 0.00 0.00 0.00 0.00 0.00 0.00 0.00 0.00 0.00 0.00 0.00 0.00
0.04 0.06 0.05 0.04 0.02 0.01 0.01 0.01 0.01 0.02 0.02 0.02 0.05 0.04 0.02 0.01 0.00 0.03 0.06 0.01 0.00 0.01 0.02 0.03 0.02 0.01 0.00 0.00 0.00 0.00 0.00 0.00 0.00 0.00 0.00 0.00 0.00 0.00 0.00 0.00 0.00 0.00 0.00 0.00 0.00
0.03 0.05 0.06 0.04 0.03 0.02 0.02 0.02 0.01 0.02 0.04 0.04 0.05 0.04 0.02 0.00 0.00 0.00 0.03 0.07 0.03 0.05 0.05 0.05 0.03 0.01 0.00 0.00 0.00 0.00 0.00 0.00 0.00 0.00 0.00 0.00 0.00 0.00 0.00 0.00 0.00 0.00 0.00 0.00 0.00
0.01 0.03 0.06 0.05 0.04 0.02 0.02 0.04 0.05 0.06 0.06 0.09 0.04 0.02 0.00 0.00 0.00 0.00 0.04 0.03 0.05 0.06 0.06 0.05 0.05 0.03 0.01 0.01 0.01 0.01 0.00 0.00 0.00 0.00 0.00 0.00 0.00 0.00 0.00 0.00 0.00 0.00 0.00 0.00 0.00
0.00 0.01 0.02 0.05 0.05 0.03 0.04 0.08 0.10 0.11 0.06 0.02 0.02 0.00 0.00 0.00 0.00 0.00 0.01 0.09 0.08 0.04 0.06 0.04 0.03 0.02 0.01 0.01 0.00 0.00 0.00 0.00 0.00 0.00 0.00 0.00 0.00 0.00 0.00 0.00 0.00 0.00 0.00 0.00 0.00
0.01 0.01 0.02 0.03 0.06 0.05 0.06 0.07 0.06 0.07 0.03 0.00 0.00 0.00 0.00 0.00 0.00 0.00 0.01 0.11 0.09 0.07 0.02 0.02 0.02 0.01 0.01 0.00 0.00 0.00 0.00 0.00 0.00 0.00 0.00 0.00 0.00 0.00 0.00 0.00 0.00 0.00 0.00 0.00 0.00
0.02 0.01 0.01 0.03 0.04 0.05 0.05 0.01 0.00 0.00 0.01 0.00 0.00 0.00 0.00 0.00 0.00 0.00 0.01 0.05 0.04 0.02 0.04 0.05 0.01 0.00 0.00 0.01 0.00 0.00 0.00 0.00 0.00 0.00 0.00 0.00 0.00 0.00 0.00 0.00 0.00 0.00 0.00 0.00 0.00
0.03 0.02 0.02 0.03 0.05 0.08 0.01 0.00 0.00 0.00 0.00 0.00 0.00 0.00 0.00 0.00 0.00 0.00 0.00 0.01 0.02 0.01 0.02 0.01 0.00 0.00 0.00 0.01 0.01 0.00 0.00 0.00 0.00 0.00 0.00 0.00 0.00 0.00 0.00 0.00 0.00 0.00 0.00 0.00 0.00
0.03 0.02 0.03 0.05 0.06 0.05 0.01 0.00 0.00 0.00 0.00 0.01 0.01 0.00 0.01 0.00 0.00 0.00 0.00 0.00 0.02 0.01 0.02 0.03 0.00 0.01 0.01 0.01 0.01 0.00 0.00 0.00 0.00 0.00 0.00 0.00 0.00 0.00 0.00 0.00 0.00 0.00 0.00 0.00 0.00
0.02 0.03 0.04 0.06 0.06 0.02 0.00 0.00 0.00 0.00 0.00 0.00 0.00 0.00 0.01 0.00 0.00 0.00 0.00 0.00 0.00 0.00 0.04 0.01 0.01 0.01 0.01 0.00 0.01 0.00 0.00 0.00 0.00 0.00 0.00 0.00 0.00 0.00 0.00 0.00 0.00 0.00 0.00 0.00 0.00
0.02 0.03 0.05 0.06 0.03 0.01 0.00 0.00 0.00 0.00 0.00 0.00 0.00 0.00 0.01 0.00 0.00 0.00 0.01 0.01 0.00 0.01 0.00 0.00 0.00 0.02 0.00 0.00 0.01 0.01 0.01 0.00 0.00 0.01 0.00 0.00 0.00 0.00 0.00 0.00 0.00 0.00 0.00 0.00 0.00
0.02 0.04 0.05 0.05 0.02 0.00 0.00 0.00 0.00 0.00 0.00 0.00 0.00 0.00 0.00 0.00 0.00 0.00 0.01 0.01 0.01 0.01 0.00 0.00 0.00 0.00 0.01 0.02 0.02 0.02 0.01 0.01 0.01 0.01 0.00 0.00 0.00 0.00 0.00 0.00 0.00 0.00 0.00 0.00 0.00
0.03 0.05 0.05 0.03 0.02 0.00 0.00 0.00 0.00 0.00 0.00 0.00 0.00 0.00 0.00 0.00 0.00 0.00 0.01 0.01 0.00 0.00 0.00 0.00 0.00 0.01 0.00 0.00 0.01 0.01 0.00 0.01 0.00 0.00 0.00 0.00 0.00 0.00 0.00 0.00 0.00 0.00 0.00 0.00 0.00
0.07 0.08 0.05 0.01 0.00 0.00 0.00 0.00 0.00 0.00 0.00 0.00 0.00 0.00 0.00 0.00 0.00 0.01 0.00 0.00 0.00 0.00 0.00 0.00 0.00 0.00 0.00 0.00 0.00 0.01 0.03 0.00 0.00 0.00 0.00 0.00 0.00 0.00 0.00 0.00 0.00 0.00 0.00 0.00 0.00
0.08 0.05 0.02 0.00 0.00 0.00 0.00 0.00 0.00 0.00 0.00 0.00 0.00 0.00 0.00 0.00 0.00 0.01 0.00 0.00 0.00 0.00 0.00 0.00 0.00 0.00 0.00 0.03 0.02 0.01 0.00 0.02 0.01 0.01 0.00 0.00 0.00 0.00 0.00 0.00 0.00 0.00 0.00 0.00 0.00
0.04 0.01 0.01 0.01 0.00 0.00 0.00 0.00 0.00 0.00 0.00 0.00 0.00 0.00 0.00 0.00 0.00 0.00 0.00 0.00 0.00 0.00 0.00 0.01 0.01 0.01 0.01 0.02 0.01 0.01 0.00 0.01 0.00 0.00 0.00 0.00 0.00 0.00 0.00 0.00 0.00 0.00 0.00 0.00 0.00
0.01 0.00 0.01 0.00 0.00 0.00 0.00 0.00 0.00 0.00 0.00 0.00 0.00 0.00 0.00 0.00 0.00 0.00 0.00 0.00 0.00 0.00 0.00 0.00 0.02 0.01 0.01 0.00 0.00 0.01 0.02 0.02 0.01 0.00 0.00 0.00 0.00 0.00 0.00 0.00 0.00 0.00 0.00 0.00 0.00
0.00 0.00 0.01 0.00 0.00 0.00 0.00 0.00 0.00 0.00 0.00 0.00 0.00 0.00 0.00 0.00 0.00 0.00 0.00 0.00 0.00 0.00 0.00 0.01 0.01 0.01 0.00 0.01 0.01 0.01 0.01 0.01 0.01 0.01 0.00 0.00 0.00 0.00 0.00 0.00 0.00 0.00 0.00 0.00 0.00
0.00 0.00 0.00 0.00 0.00 0.00 0.00 0.00 0.00 0.00 0.00 0.00 0.00 0.00 0.00 0.00 0.00 0.00 0.00 0.00 0.00 0.01 0.01 0.01 0.00 0.00 0.00 0.00 0.01 0.01 0.00 0.01 0.01 0.02 0.00 0.00 0.00 0.00 0.00 0.00 0.00 0.00 0.00 0.00 0.00
0.00 0.00 0.00 0.00 0.00 0.00 0.00 0.00 0.00 0.00 0.00 0.00 0.00 0.00 0.00 0.00 0.00 0.00 0.00 0.00 0.00 0.03 0.04 0.02 0.00 0.00 0.00 0.00 0.00 0.00 0.01 0.01 0.02 0.00 0.00 0.00 0.00 0.00 0.00 0.00 0.00 0.00 0.00 0.00 0.00
0.00 0.00 0.00 0.00 0.00 0.00 0.00 0.00 0.00 0.00 0.00 0.00 0.00 0.00 0.00 0.00 0.00 0.00 0.00 0.00 0.00 0.00 0.01 0.01 0.00 0.00 0.00 0.00 0.00 0.00 0.00 0.00 0.00 0.01 0.00 0.00 0.00 0.00 0.00 0.00 0.00 0.00 0.00 0.00 0.00
0.00 0.00 0.00 0.00 0.00 0.00 0.00 0.00 0.00 0.00 0.00 0.00 0.00 0.00 0.00 0.00 0.00 0.00 0.00 0.00 0.00 0.00 0.00 0.00 0.00 0.00 0.00 0.00 0.01 0.00 0.00 0.00 0.00 0.00 0.00 0.00 0.00 0.00 0.00 0.00 0.00 0.00 0.00 0.00 0.00
MSLP
1015.17 1015.59 1015.95 1016.35 1016.69 1017.13 1017.36 1017.71 1017.97 1018.03 1018.30 1018.43 1018.76 1019.05 1019.21 1019.30 1019.76 1020.03 1019.48 1019.26 1019.34 1019.34 1019.21 1018.95 1018.79 1018.63 1018.31 1018.16 1018.04 1017.76 1017.11 1016.40 1016.18 1016.39 1016.61 1017.32 1017.00 1017.20 1017.68 1017.40 1017.69 1017.98 1017.90 1018.61 1018.92
1014.42 1014.95 1015.42 1015.89 1016.24 1016.70 1017.05 1017.37 1017.77 1017.99 1018.00 1018.48 1018.61 1018.97 1019.46 1019.57 1019.43 1019.31 1019.17 1019.46 1019.37 1019.48 1019.06 1018.96 1018.81 1018.78 1018.42 1018.38 1018.36 1017.46 1016.76 1015.87 1016.21 1016.39 1016.51 1016.93 1017.19 1017.05 1017.18 1017.08 1017.19 1017.66 1018.33 1018.87 1019.54
1013.87 1014.22 1014.73 1015.29 1015.82 1016.16 1016.59 1016.87 1017.40 1017.80 1017.99 1018.17 1018.43 1018.95 1019.53 1019.55 1019.64 1018.22 1018.89 1019.10 1019.63 1019.48 1019.42 1019.26 1019.21 1019.05 1018.71 1018.80 1018.50 1018.03 1016.81 1016.46 1016.38 1016.35 1016.65 1016.28 1016.61 1016.93 1016.95 1016.47 1016.28 1016.56 1017.42 1018.54 1019.46
1013.24 1013.63 1014.08 1014.63 1015.21 1015.69 1016.11 1016.54 1016.85 1017.55 1017.78 1018.10 1018.33 1018.65 1019.10 1019.41 1018.66 1017.49 1017.99 1018.78 1019.36 1019.58 1019.70 1019.59 1019.42 1019.30 1018.90 1018.71 1018.71 1018.40 1017.82 1017.44 1016.79 1017.06 1017.22 1016.75 1016.66 1016.43 1016.41 1015.87 1016.44 1016.68 1017.16 1018.07 1018.87
1012.56 1013.05 1013.49 1013.97 1014.53 1015.13 1015.67 1016.15 1016.59 1017.08 1017.67 1017.87 1018.15 1018.49 1019.30 1019.00 1017.68 1017.84 1018.03 1018.59 1019.19 1019.87 1020.06 1020.03 1019.90 1019.76 1019.44 1019.12 1019.22 1018.73 1018.13 1017.94 1017.70 1017.64 1017.48 1017.48 1017.12 1016.12 1015.71 1015.87 1016.44 1016.80 1017.24 1017.52 1018.03
1011.90 1012.39 1012.92 1013.41 1013.99 1014.59 1015.22 1015.79 1016.23 1016.71 1017.34 1017.78 1018.06 1018.44 1018.71 1017.97 1017.44 1017.77 1018.02 1018.68 1019.19 1019.55 1020.10 1020.30 1020.25 1020.56 1020.60 1019.98 1019.82 1019.00 1018.44 1018.34 1018.28 1018.03 1018.03 1017.80 1017.16 1017.06 1015.66 1015.75 1016.07 1016.49 1016.56 1016.88 1017.22
1011.27 1011.75 1012.33 1012.85 1013.63 1014.10 1014.65 1015.39 1015.87 1016.42 1017.08 1017.59 1018.03 1018.48 1018.51 1017.21 1017.38 1017.77 1018.07 1018.44 1018.88 1019.28 1019.70 1019.81 1020.22 1020.62 1021.16 1020.60 1020.69 1020.16 1019.08 1018.63 1018.23 1018.32 1018.00 1017.98 1016.98 1016.36 1015.67 1015.68 1015.48 1015.79 1015.97 1016.33 1016.58
1010.71 1011.09 1011.78 1012.25 1012.90 1013.66 1014.21 1014.93 1015.63 1016.24 1016.94 1017.58 1018.22 1018.64 1018.25 1017.81 1017.71 1017.96 1017.84 1018.44 1019.15 1019.46 1019.84 1020.31 1020.54 1020.61 1021.40 1021.34 1021.22 1021.33 1019.76 1018.22 1017.31 1018.07 1017.79 1017.81 1015.49 1015.18 1015.42 1015.43 1014.85 1014.78 1014.85 1015.56 1015.84
1009.90 1010.55 1011.04 1011.77 1012.34 1012.97 1013.87 1014.57 1015.56 1016.21 1017.04 1017.88 1018.38 1018.49 1018.00 1018.15 1017.84 1017.77 1018.04 1018.00 1019.16 1019.94 1020.37 1020.44 1020.88 1020.76 1021.61 1021.27 1021.38 1021.32 1019.52 1017.92 1017.75 1017.89 1017.53 1017.31 1015.78 1015.20 1014.80 1014.72 1014.17 1013.90 1013.85 1014.16 1014.73
1009.16 1009.80 1010.26 1011.08 1011.71 1012.32 1013.33 1014.42 1015.58 1016.73 1017.72 1017.98 1018.45 1018.92 1018.00 1016.84 1017.43 1017.65 1018.26 1018.06 1018.91 1019.88 1020.52 1020.58 1020.67 1019.93 1020.45 1020.32 1019.68 1019.78 1019.52 1018.31 1017.46 1017.31 1017.43 1016.74 1015.85 1015.02 1014.61 1014.56 1013.78 1013.47 1013.30 1013.46 1013.70
1008.43 1009.11 1009.36 1010.37 1010.99 1011.40 1012.95 1014.62 1016.03 1016.78 1016.70 1016.44 1016.52 1016.59 1016.52 1016.85 1017.31 1017.66 1017.80 1018.32 1019.05 1019.75 1019.83 1020.12 1020.13 1019.22 1019.26 1019.66 1019.68 1019.63 1018.93 1018.06 1017.39 1017.33 1016.94 1016.12 1015.63 1014.63 1013.96 1013.82 1013.44 1013.00 1012.86 1012.56 1012.52
1007.50 1008.12 1008.71 1009.43 1010.04 1009.58 1011.53 1012.30 1011.93 1011.96 1015.74 1016.45 1016.57 1017.07 1016.98 1016.94 1017.13 1017.32 1017.76 1018.00 1018.61 1018.47 1019.32 1019.89 1018.43 1017.53 1019.22 1019.63 1019.43 1019.47 1019.01 1018.25 1017.70 1017.44 1017.15 1015.90 1014.87 1013.86 1013.17 1012.89 1012.62 1012.09 1011.78 1011.71 1011.72
1006.47 1007.21 1008.05 1008.56 1009.52 1010.64 1010.09 1010.95 1012.64 1012.77 1015.10 1016.41 1016.40 1016.35 1016.97 1016.96 1016.83 1017.20 1017.35 1017.14 1017.65 1017.91 1018.39 1018.31 1016.58 1017.80 1018.38 1018.82 1019.48 1018.73 1018.33 1018.26 1017.78 1017.56 1017.12 1015.99 1014.07 1012.52 1011.58 1011.54 1011.25 1010.95 1010.70 1010.56 1010.32
1005.54 1006.32 1007.06 1007.93 1009.69 1008.83 1009.36 1011.13 1012.29 1012.40 1014.25 1015.88 1015.90 1016.35 1016.92 1016.88 1016.92 1016.78 1016.78 1017.08 1017.49 1017.11 1017.91 1017.86 1017.26 1017.31 1018.03 1018.49 1019.12 1018.24 1017.91 1018.07 1018.27 1018.21 1016.86 1016.18 1013.17 1011.08 1010.50 1010.33 1010.07 1009.83 1009.70 1009.39 1009.22
1004.55 1005.49 1006.26 1007.34 1007.75 1007.69 1008.30 1010.49 1011.76 1012.27 1013.49 1014.34 1015.37 1015.51 1016.17 1016.48 1016.49 1016.90 1016.80 1017.21 1016.46 1016.74 1017.61 1016.30 1016.29 1016.83 1017.32 1017.20 1018.83 1018.26 1017.95 1017.98 1017.94 1017.52 1017.13 1016.39 1015.16 1009.79 1010.13 1009.09 1008.69 1008.32 1008.36 1008.24 1008.24
1003.60 1004.70 1005.65 1006.45 1007.72 1006.67 1008.54 1010.08 1011.71 1012.96 1012.82 1013.79 1014.13 1015.04 1015.72 1016.04 1016.47 1016.82 1016.85 1017.10 1017.04 1017.39 1017.02 1016.41 1016.47 1016.40 1016.23 1017.10 1017.96 1017.85 1018.14 1018.07 1017.78 1017.45 1015.95 1014.06 1013.53 1009.63 1008.17 1007.38 1007.33 1007.55 1007.39 1007.27 1007.34
1002.72 1003.91 1005.07 1005.75 1006.04 1007.67 1008.38 1009.67 1011.61 1011.58 1013.05 1013.29 1013.11 1013.84 1014.60 1015.41 1016.27 1016.26 1016.45 1016.61 1016.29 1016.86 1016.10 1015.78 1015.46 1015.70 1016.17 1016.46 1017.33 1017.34 1017.11 1017.34 1017.16 1016.33 1013.70 1012.09 1012.07 1007.97 1006.73 1006.65 1006.63 1006.50 1006.40 1006.31 1006.29
1002.10 1003.41 1004.21 1005.09 1005.85 1007.25 1007.42 1009.97 1010.02 1010.76 1011.74 1012.14 1012.60 1013.85 1014.14 1015.03 1015.96 1016.02 1016.19 1016.26 1016.25 1015.49 1015.16 1015.53 1015.25 1014.96 1014.73 1014.83 1014.84 1014.98 1015.44 1015.70 1014.99 1014.39 1012.34 1011.84 1009.79 1006.45 1006.22 1006.04 1006.07 1005.90 1005.71 1005.87 1006.02
1001.87 1003.06 1003.67 1004.79 1005.53 1005.95 1007.42 1008.36 1007.88 1008.92 1010.37 1010.88 1012.91 1013.46 1013.99 1014.62 1014.69 1015.46 1015.33 1015.11 1015.12 1015.17 1014.73 1014.43 1013.83 1013.64 1013.78 1014.29 1014.70 1014.33 1014.70 1013.95 1014.33 1014.91 1012.81 1010.22 1007.71 1006.55 1005.98 1005.49 1005.54 1005.20 1005.07 1005.25 1005.41
1001.37 1002.66 1002.59 1004.37 1005.73 1005.81 1006.81 1007.16 1007.94 1007.83 1008.46 1010.01 1010.89 1012.10 1012.51 1013.52 1014.17 1014.57 1014.71 1013.68 1014.10 1014.46 1014.78 1014.12 1013.68 1013.25 1013.82 1014.42 1014.15 1013.55 1013.92 1015.01 1014.72 1013.97 1012.17 1009.51 1006.76 1004.81 1005.00 1004.62 1004.75 1004.53 1004.48 1004.67 1005.01
1001.31 1001.67 1002.16 1003.81 1006.17 1005.39 1005.16 1007.39 1007.91 1007.63 1007.45 1008.85 1009.75 1010.62 1011.85 1012.69 1013.33 1013.78 1013.40 1013.74 1013.65 1013.96 1014.68 1014.45 1014.08 1013.55 1013.49 1013.22 1012.72 1013.56 1013.56 1014.00 1013.78 1013.30 1011.12 1008.75 1005.21 1003.78 1003.52 1003.88 1003.66 1003.80 1004.10 1004.44 1004.78
1000.39 1000.59 1002.16 1003.78 1004.13 1004.80 1005.35 1006.75 1007.13 1007.71 1007.92 1008.75 1009.68 1010.07 1010.96 1012.03 1012.87 1013.16 1013.01 1012.77 1013.10 1013.37 1013.56 1013.93 1014.52 1014.16 1013.49 1013.46 1013.24 1012.53 1012.67 1013.48 1013.18 1012.36 1011.30 1008.69 1005.43 1004.06 1003.38 1003.20 1003.26 1003.81 1004.03 1004.32 1004.54
1000.11 1000.85 1001.39 1001.72 1003.26 1004.63 1005.26 1006.43 1006.98 1007.47 1007.84 1008.48 1009.37 1009.77 1010.88 1011.85 1013.02 1013.00 1013.22 1013.27 1013.29 1013.33 1013.28 1014.01 1014.23 1014.43 1013.68 1013.65 1013.60 1012.53 1012.00 1012.25 1012.29 1011.82 1009.90 1008.49 1004.63 1003.80 1003.52 1003.69 1003.67 1003.60 1003.79 1004.02 1004.27
999.58 1000.37 1001.36 1002.85 1003.47 1004.00 1004.83 1006.72 1007.33 1008.04 1008.57 1008.73 1009.41 1009.67 1010.72 1011.90 1012.51 1012.90 1013.30 1013.32 1013.31 1013.47 1013.70 1014.08 1013.86 1013.66 1012.93 1012.14 1012.42 1012.44 1011.93 1011.61 1011.76 1011.33 1009.72 1007.98 1005.19 1002.59 1003.43 1003.66 1003.05 1003.01 1003.40 1003.76 1004.00
998.58 1000.04 1001.66 1002.45 1003.64 1003.66 1004.64 1005.64 1006.65 1008.29 1008.81 1009.03 1009.97 1009.85 1010.41 1011.91 1012.67 1012.72 1013.18 1013.24 1013.19 1013.22 1013.89 1014.27 1013.79 1013.75 1013.09 1012.84 1012.52 1012.50 1011.88 1011.93 1011.22 1010.44 1009.58 1007.47 1005.37 1001.77 1002.41 1003.25 1003.02 1003.00 1003.14 1003.58 1003.45
998.48 1000.03 1002.08 1003.21 1003.41 1003.23 1004.57 1006.71 1007.50 1008.66 1008.99 1009.43 1009.90 1010.76 1010.69 1011.31 1011.62 1012.29 1012.59 1012.86 1012.79 1013.51 1013.41 1013.98 1013.82 1013.78 1013.38 1012.71 1012.24 1011.55 1011.00 1010.81 1010.61 1010.29 1009.36 1007.37 1005.35 1001.98 1000.78 1003.02 1002.77 1002.72 1002.96 1002.47 1002.29
998.92 999.78 1000.04 1003.45 1003.84 1004.19 1005.54 1006.90 1007.69 1008.35 1010.01 1009.70 1009.87 1010.62 1011.29 1011.80 1011.99 1012.47 1013.05 1013.32 1013.42 1013.48 1013.63 1014.05 1014.07 1014.09 1012.70 1012.24 1011.90 1010.94 1008.84 1009.19 1008.90 1008.72 1008.17 1007.45 1003.50 1000.26 1002.33 1002.26 1002.27 1002.49 1002.33 1001.91 1001.64
Thickness
5558 5561 5566 5570 5574 5576 5581 5585 5591 5598 5602 5609 5611 5614 5617 5622 5624 5624 5630 5641 5644 5649 5653 5659 5663 5668 5675 5675 5680 5682 5669 5672 5682 5680 5687 5692 5697 5704 5705 5710 5709 5710 5715 5712 5716
5548 5550 5552 5556 5561 5565 5569 5573 5578 5583 5591 5594 5601 5601 5602 5608 5613 5619 5631 5629 5635 5639 5646 5648 5650 5656 5660 5663 5667 5673 5670 5683 5690 5692 5687 5689 5690 5697 5701 5704 5707 5707 5708 5708 5705
5534 5539 5542 5545 5547 5553 5558 5564 5566 5571 5577 5583 5589 5588 5591 5595 5592 5619 5622 5623 5625 5631 5636 5640 5643 5647 5647 5651 5657 5664 5670 5684 5685 5690 5691 5695 5692 5692 5693 5699 5711 5710 5711 5704 5699
5521 5525 5529 5534 5536 5540 5545 5551 5557 5558 5565 5570 5575 5578 5580 5580 5583 5617 5618 5618 5619 5621 5625 5627 5632 5633 5640 5641 5650 5647 5664 5671 5680 5679 5677 5681 5690 5690 5694 5706 5707 5711 5711 5704 5698
5509 5512 5517 5521 5525 5528 5533 5538 5544 5548 5550 5557 5560 5564 5561 5564 5587 5604 5609 5612 5612 5611 5611 5614 5620 5624 5627 5635 5635 5639 5653 5659 5665 5668 5671 5673 5675 5686 5693 5703 5704 5703 5703 5704 5702
5497 5501 5507 5510 5513 5517 5521 5525 5530 5535 5538 5541 5544 5548 5549 5559 5584 5589 5598 5600 5602 5604 5603 5607 5608 5608 5610 5618 5621 5635 5644 5647 5650 5660 5662 5662 5670 5669 5691 5699 5698 5697 5701 5704 5704
5487 5491 5496 5501 5502 5507 5511 5514 5518 5521 5523 5527 5527 5531 5533 5563 5573 5578 5588 5589 5593 5597 5599 5607 5604 5600 5597 5602 5607 5615 5624 5633 5643 5648 5654 5657 5659 5666 5684 5687 5693 5694 5699 5702 5704
5476 5483 5487 5493 5496 5499 5502 5505 5506 5509 5510 5511 5510 5515 5520 5539 5557 5568 5576 5575 5579 5585 5590 5593 5593 5596 5593 5591 5594 5590 5610 5621 5647 5639 5649 5650 5662 5681 5680 5679 5687 5695 5701 5699 5702
5467 5473 5480 5485 5489 5493 5494 5496 5494 5495 5494 5492 5496 5501 5511 5530 5546 5559 5567 5571 5567 5567 5571 5578 5578 5584 5578 5586 5581 5579 5592 5619 5625 5632 5637 5641 5654 5672 5679 5678 5683 5694 5701 5703 5702
5454 5462 5472 5477 5483 5488 5488 5485 5480 5475 5474 5478 5481 5483 5506 5538 5539 5546 5551 5559 5556 5554 5555 5561 5566 5578 5577 5578 5584 5591 5590 5608 5618 5628 5623 5634 5643 5664 5671 5670 5681 5689 5696 5697 5700
5439 5449 5464 5470 5478 5484 5477 5466 5458 5459 5469 5483 5499 5508 5515 5524 5526 5532 5541 5542 5540 5538 5546 5554 5554 5568 5584 5583 5590 5589 5597 5603 5618 5620 5620 5631 5635 5655 5669 5671 5676 5685 5692 5699 5705
5423 5437 5452 5465 5477 5480 5470 5471 5500 5512 5473 5472 5486 5487 5497 5509 5513 5523 5527 5528 5528 5543 5542 5535 5552 5593 5576 5571 5576 5575 5579 5591 5607 5610 5609 5623 5630 5655 5665 5668 5679 5687 5695 5701 5705
5407 5423 5439 5457 5467 5464 5474 5484 5477 5487 5465 5465 5478 5485 5487 5498 5505 5511 5518 5529 5528 5535 5536 5540 5584 5571 5569 5570 5566 5573 5582 5583 5597 5599 5605 5610 5624 5654 5673 5673 5684 5693 5701 5705 5711
5397 5409 5428 5447 5444 5465 5470 5469 5471 5482 5462 5451 5466 5472 5480 5490 5494 5505 5513 5517 5515 5530 5534 5535 5559 5560 5555 5560 5565 5569 5586 5586 5581 5575 5585 5603 5612 5658 5673 5671 5681 5691 5698 5708 5713
5391 5399 5417 5433 5455 5459 5474 5466 5467 5472 5448 5466 5463 5475 5478 5484 5496 5495 5505 5502 5518 5525 5519 5542 5548 5546 5553 5570 5561 5565 5577 5578 5580 5577 5576 5584 5574 5654 5665 5670 5686 5702 5705 5711 5715
5391 5395 5409 5428 5442 5464 5462 5463 5454 5441 5453 5450 5469 5466 5472 5481 5483 5487 5492 5498 5508 5506 5519 5530 5538 5545 5563 5559 5560 5563 5562 5560 5559 5561 5560 5602 5591 5633 5670 5686 5694 5700 5707 5714 5715
5390 5393 5404 5424 5447 5445 5452 5445 5437 5452 5435 5453 5468 5475 5483 5479 5475 5487 5486 5487 5501 5493 5509 5530 5535 5549 5549 5550 5551 5547 5553 5551 5550 5551 5583 5619 5594 5639 5686 5690 5698 5701 5707 5715 5720
5387 5391 5406 5423 5437 5441 5443 5437 5451 5440 5452 5468 5477 5474 5477 5478 5472 5479 5481 5481 5495 5512 5516 5510 5513 5534 5556 5556 5564 5564 5568 5557 5560 5570 5610 5586 5602 5650 5678 5689 5696 5702 5706 5709 5712
5384 5389 5404 5417 5432 5444 5438 5446 5467 5466 5462 5476 5465 5460 5465 5470 5483 5477 5485 5493 5498 5505 5510 5513 5521 5543 5550 5557 5553 5558 5540 5587 5563 5519 5567 5596 5636 5650 5660 5676 5683 5694 5701 5704 5707
5383 5388 5408 5418 5425 5435 5437 5456 5448 5469 5486 5480 5472 5473 5469 5468 5476 5478 5478 5503 5501 5502 5505 5516 5517 5537 5537 5537 5539 5550 5563 5535 5533 5541 5552 5592 5624 5644 5657 5673 5681 5693 5701 5703 5702
5379 5392 5408 5416 5414 5428 5450 5429 5441 5475 5492 5488 5481 5480 5478 5469 5480 5475 5489 5492 5498 5497 5495 5504 5509 5519 5524 5525 5545 5538 5538 5540 5546 5541 5571 5587 5625 5675 5670 5673 5681 5686 5691 5693 5693
5374 5398 5405 5407 5418 5425 5442 5439 5458 5463 5475 5471 5473 5484 5478 5478 5472 5479 5480 5495 5496 5495 5494 5502 5489 5495 5515 5520 5529 5542 5543 5540 5539 5545 5551 5579 5605 5650 5660 5669 5679 5677 5680 5683 5686
5385 5400 5413 5431 5432 5425 5425 5441 5457 5463 5472 5473 5470 5477 5477 5474 5462 5472 5474 5481 5482 5486 5491 5489 5485 5484 5502 5504 5510 5522 5546 5548 5545 5543 5560 5563 5606 5651 5657 5649 5655 5664 5671 5672 5670
5389 5403 5404 5406 5418 5430 5440 5441 5443 5449 5455 5463 5463 5476 5473 5466 5460 5460 5462 5470 5474 5478 5480 5482 5489 5493 5507 5526 5516 5516 5530 5542 5541 5531 5552 5564 5605 5643 5641 5637 5652 5660 5661 5660 5661
5403 5403 5399 5407 5413 5441 5446 5454 5453 5453 5450 5458 5453 5470 5471 5451 5445 5456 5461 5463 5469 5474 5472 5467 5471 5482 5500 5502 5505 5506 5514 5508 5526 5542 5538 5576 5592 5639 5640 5633 5643 5649 5652 5648 5655
5410 5409 5406 5411 5432 5454 5453 5445 5439 5432 5450 5453 5457 5452 5461 5454 5465 5453 5464 5468 5474 5467 5476 5473 5471 5477 5469 5494 5501 5505 5515 5518 5525 5520 5531 5568 5580 5636 5656 5626 5632 5638 5640 5650 5658
5412 5422 5445 5423 5436 5451 5444 5433 5443 5449 5437 5448 5456 5451 5452 5448 5453 5454 5452 5453 5457 5464 5467 5463 5465 5461 5484 5492 5488 5482 5522 5525 5532 5537 5539 5534 5598 5644 5616 5619 5623 5623 5630 5638 5647